| time (UTC) | temp F | wind direction | speed knots | gust knots | rain 1hr in | rain 24hr in | rain mn in | humidity % | barometer mb |
| 20260506013100 | 81 | 186 | 0.9 | 4.3 | 0.00 | 0.00 | 0.00 | 79 | 1005.7 |
| 20260506011604 | 81 | 186 | 1.7 | 5.2 | 0.00 | 0.00 | 0.00 | 77 | 1005.6 |
| 20260506004559 | 82 | 192 | 1.7 | 10.4 | 0.00 | 0.00 | 0.00 | 74 | 1005.5 |
| 20260506003059 | 83 | 191 | 2.6 | 8.7 | 0.00 | 0.00 | 0.00 | 74 | 1005.6 |
| 20260506001619 | 83 | 188 | 1.7 | 7.8 | 0.00 | 0.00 | 0.00 | 74 | 1005.7 |
| 20260505234601 | 83 | 200 | 0.9 | 7.0 | 0.00 | 0.00 | 0.00 | 72 | 1005.7 |
| 20260505233059 | 83 | 195 | 2.6 | 9.6 | 0.00 | 0.00 | 0.00 | 71 | 1005.5 |
| 20260505231559 | 84 | 196 | 3.5 | 11.3 | 0.00 | 0.00 | 0.00 | 71 | 1005.4 |
| 20260505230117 | 84 | 190 | 3.5 | 12.2 | 0.00 | 0.00 | 0.00 | 70 | 1005.2 |
| 20260505224600 | 84 | 178 | 4.3 | 9.6 | 0.00 | 0.00 | 0.00 | 70 | 1005.0 |
| 20260505223100 | 84 | 196 | 3.5 | 12.2 | 0.00 | 0.00 | 0.00 | 70 | 1005.2 |
| 20260505221559 | 84 | 183 | 4.3 | 11.3 | 0.00 | 0.00 | 0.00 | 70 | 1005.0 |
| 20260505220100 | 85 | 177 | 5.2 | 11.3 | 0.00 | 0.00 | 0.00 | 69 | 1005.1 |
| 20260505214608 | 85 | 174 | 5.2 | 14.8 | 0.00 | 0.00 | 0.00 | 70 | 1005.3 |
| 20260505213101 | 85 | 216 | 3.5 | 12.2 | 0.00 | 0.00 | 0.00 | 70 | 1005.5 |
| 20260505211616 | 85 | 199 | 4.3 | 13.0 | 0.00 | 0.00 | 0.00 | 70 | 1005.6 |
| 20260505210106 | 85 | 171 | 4.3 | 10.4 | 0.00 | 0.00 | 0.00 | 71 | 1005.8 |
| 20260505204559 | 84 | 165 | 6.1 | 13.9 | 0.00 | 0.00 | 0.00 | 71 | 1005.9 |
| 20260505203058 | 84 | 169 | 6.1 | 11.3 | 0.00 | 0.00 | 0.00 | 72 | 1006.0 |
| 20260505201605 | 85 | 175 | 2.6 | 8.7 | 0.00 | 0.00 | 0.00 | 70 | 1006.4 |
| 20260505200058 | 84 | 166 | 4.3 | 12.2 | 0.00 | 0.00 | 0.00 | 70 | 1006.5 |
| 20260505194558 | 85 | 204 | 3.5 | 11.3 | 0.00 | 0.00 | 0.00 | 69 | 1006.6 |
| 20260505193100 | 84 | 214 | 3.5 | 11.3 | 0.00 | 0.00 | 0.00 | 70 | 1006.9 |
| 20260505191604 | 84 | 229 | 2.6 | 8.7 | 0.00 | 0.00 | 0.00 | 70 | 1007.0 |
| 20260505190113 | 83 | 187 | 4.3 | 11.3 | 0.00 | 0.00 | 0.00 | 70 | 1007.2 |
| 20260505184609 | 83 | 229 | 3.5 | 11.3 | 0.00 | 0.00 | 0.00 | 71 | 1007.4 |
| 20260505183057 | 82 | 238 | 3.5 | 10.4 | 0.00 | 0.00 | 0.00 | 73 | 1007.5 |
| 20260505181603 | 80 | 211 | 3.5 | 13.0 | 0.00 | 0.00 | 0.00 | 75 | 1007.8 |
| 20260505180057 | 80 | 209 | 3.5 | 11.3 | 0.00 | 0.00 | 0.00 | 76 | 1007.8 |
| 20260505174600 | 78 | 212 | 1.7 | 8.7 | 0.00 | 0.00 | 0.00 | 79 | 1008.2 |
| 20260505173101 | 77 | 178 | 3.5 | 13.0 | 0.00 | 0.00 | 0.00 | 80 | 1008.1 |
| 20260505171558 | 77 | 232 | 0.9 | 8.7 | 0.00 | 0.00 | 0.00 | 82 | 1008.2 |
| 20260505170109 | 76 | 204 | 3.5 | 13.0 | 0.00 | 0.00 | 0.00 | 82 | 1008.2 |
| 20260505164559 | 76 | 236 | 1.7 | 9.6 | 0.00 | 0.00 | 0.00 | 83 | 1008.2 |
| 20260505163107 | 75 | 197 | 1.7 | 8.7 | 0.00 | 0.00 | 0.00 | 85 | 1008.2 |
| 20260505161559 | 74 | 231 | 3.5 | 12.2 | 0.00 | 0.00 | 0.00 | 85 | 1008.2 |
| 20260505153109 | 73 | 196 | 2.6 | 9.6 | 0.00 | 0.00 | 0.00 | 87 | 1008.1 |
| 20260505151557 | 73 | 182 | 1.7 | 9.6 | 0.00 | 0.00 | 0.00 | 87 | 1008.2 |
| 20260505150114 | 73 | 183 | 1.7 | 8.7 | 0.00 | 0.00 | 0.00 | 88 | 1008.1 |
| 20260505140117 | 72 | 208 | 2.6 | 8.7 | 0.00 | 0.00 | 0.00 | 88 | 1007.6 |
| 20260505130110 | 71 | 203 | 4.3 | 10.4 | 0.00 | 0.00 | 0.00 | 88 | 1007.2 |
| 20260505124617 | 71 | 211 | 2.6 | 7.0 | 0.00 | 0.00 | 0.00 | 88 | 1007.1 |
| 20260505123118 | 71 | 0 | 3.5 | 9.6 | 0.00 | 0.00 | 0.00 | 89 | 1006.8 |
| 20260505121600 | 71 | 192 | 1.7 | 11.3 | 0.00 | 0.00 | 0.00 | 89 | 1006.6 |
| 20260505120059 | 71 | 198 | 2.6 | 9.6 | 0.00 | 0.00 | 0.00 | 89 | 1006.6 |
| 20260505114602 | 71 | 192 | 3.5 | 9.6 | 0.00 | 0.00 | 0.00 | 89 | 1006.2 |
| 20260505113058 | 71 | 219 | 3.5 | 9.6 | 0.00 | 0.00 | 0.00 | 88 | 1006.3 |
| 20260505111600 | 71 | 188 | 4.3 | 10.4 | 0.00 | 0.00 | 0.00 | 88 | 1006.2 |
| 20260505101603 | 71 | 194 | 0.9 | 7.8 | 0.00 | 0.00 | 0.00 | 87 | 1006.4 |
| 20260505100110 | 71 | 192 | 1.7 | 7.0 | 0.00 | 0.00 | 0.00 | 87 | 1006.7 |
| 20260505094604 | 71 | 195 | 1.7 | 8.7 | 0.00 | 0.00 | 0.00 | 87 | 1006.7 |
| 20260505093058 | 71 | 209 | 2.6 | 8.7 | 0.00 | 0.00 | 0.00 | 87 | 1006.8 |
| 20260505091559 | 71 | 203 | 2.6 | 11.3 | 0.00 | 0.00 | 0.00 | 87 | 1006.9 |
| 20260505090109 | 71 | 193 | 5.2 | 13.0 | 0.00 | 0.00 | 0.00 | 87 | 1006.9 |
| 20260505084558 | 71 | 188 | 2.6 | 12.2 | 0.00 | 0.00 | 0.00 | 87 | 1007.0 |
| 20260505083110 | 71 | 201 | 3.5 | 11.3 | 0.00 | 0.00 | 0.00 | 86 | 1007.0 |
| 20260505081601 | 71 | 188 | 2.6 | 12.2 | 0.00 | 0.00 | 0.00 | 86 | 1007.4 |
| 20260505080058 | 71 | 188 | 2.6 | 11.3 | 0.00 | 0.00 | 0.00 | 86 | 1007.4 |
| 20260505074559 | 71 | 200 | 2.6 | 8.7 | 0.00 | 0.00 | 0.00 | 86 | 1007.4 |
| 20260505073101 | 71 | 197 | 3.5 | 12.2 | 0.00 | 0.00 | 0.00 | 86 | 1007.6 |
| 20260505071559 | 71 | 184 | 3.5 | 12.2 | 0.00 | 0.00 | 0.00 | 86 | 1007.9 |
| 20260505070101 | 72 | 192 | 4.3 | 18.2 | 0.00 | 0.00 | 0.00 | 85 | 1008.1 |
| 20260505064600 | 72 | 197 | 3.5 | 15.6 | 0.00 | 0.00 | 0.00 | 85 | 1008.3 |
| 20260505063104 | 72 | 220 | 3.5 | 15.6 | 0.00 | 0.00 | 0.00 | 85 | 1008.4 |
| 20260505061604 | 72 | 192 | 4.3 | 12.2 | 0.00 | 0.00 | 0.00 | 85 | 1008.5 |
| 20260505060058 | 72 | 182 | 4.3 | 13.0 | 0.00 | 0.00 | 0.00 | 84 | 1008.6 |
| 20260505054558 | 72 | 0 | 3.5 | 10.4 | 0.00 | 0.00 | 0.00 | 84 | 1008.6 |
| 20260505053103 | 72 | 201 | 5.2 | 13.0 | 0.00 | 0.00 | 0.00 | 84 | 1008.5 |
| 20260505051600 | 73 | 234 | 2.6 | 14.8 | 0.00 | 0.00 | 0.00 | 84 | 1008.6 |
| 20260505050128 | 73 | 196 | 3.5 | 13.9 | 0.00 | 0.00 | 0.00 | 83 | 1008.6 |
| 20260505041610 | 74 | 190 | 0.9 | 7.8 | 0.00 | 0.00 | 0.00 | 82 | 1008.6 |
| 20260505034601 | 74 | 173 | 0.9 | 7.0 | 0.00 | 0.00 | 0.00 | 80 | 1008.5 |
| 20260505033059 | 75 | 185 | 2.6 | 10.4 | 0.00 | 0.00 | 0.00 | 79 | 1008.6 |
| 20260505031601 | 75 | 211 | 3.5 | 12.2 | 0.00 | 0.00 | 0.00 | 78 | 1008.5 |
| 20260505030058 | 75 | 182 | 3.5 | 12.2 | 0.00 | 0.00 | 0.00 | 77 | 1008.2 |
| 20260505024558 | 76 | 196 | 2.6 | 9.6 | 0.00 | 0.00 | 0.00 | 76 | 1008.3 |
| 20260505023058 | 76 | 197 | 1.7 | 9.6 | 0.00 | 0.00 | 0.00 | 73 | 1008.2 |
| 20260505021600 | 77 | 188 | 3.5 | 11.3 | 0.00 | 0.00 | 0.00 | 72 | 1008.2 |
| 20260505020100 | 77 | 193 | 3.5 | 10.4 | 0.00 | 0.00 | 0.00 | 71 | 1008.0 |
| 20260505014631 | 77 | 194 | 3.5 | 9.6 | 0.00 | 0.00 | 0.00 | 70 | 1008.2 |